Flag for U.S.A. Weather past 2 weeks in Barrow, Alaska, U.S.A.

Now
37 °F

Mostly cloudy.


Feels Like: 32 °F
Forecast: 36 / 51 °F
Wind: 7 mph from Southwest

Location: Post Rogers Memorial Airport

Current Time: Aug 27, 2014 at 9:30:04 AM

Latest Report: Aug 27, 2014 at 8:53 AM


Visibility: 10 mi

Pressure: 29.62 "Hg

Humidity: 96%

Dew point: 36 °F

Location of BarrowLocation

Historic Weather in Barrow — Graph

°F

Barrow temperature yesterday

Maximum temperature yesterday: 41 °F (at 4:53 PM)
Minimum temperature yesterday: 33 °F (at 8:53 AM)
Average temperature yesterday: 37 °F

Past Weeks' High & Low Weather Summary

 TemperatureHumidityPressure
High56 °F (Aug 22, 1:53 PM)100% (Aug 13, 8:53 AM)30.14 "Hg (Aug 13, 8:53 AM)
Low30 °F (Aug 24, 7:48 AM)64% (Aug 22, 3:53 PM)29.55 "Hg (Aug 17, 1:53 PM)
Average39 °F94%29.90 "Hg
* Reported Aug 12 8:53 AM — Aug 27 8:00 AM, Barrow, Weather by CustomWeather, © 2014

Note: Actual official high and low records may vary slightly from our data, if they occured in-between our weather recording intervals... More about our weather records

Advertising

Barrow weather history for previous 24 hours

 ConditionsComfort  
Time TempWeatherWind HumidityBarometerVisibility
8:00 AM
Aug 27
37 °FFog.7 mph100%29.63 "Hg3 mi
6:59 AM35 °FFog.3 mph100%29.65 "Hg1 mi
6:02 AM36 °FFog.3 mph100%29.66 "Hg1 mi
5:53 AM35 °FFog.6 mph100%29.66 "Hg1 mi
4:53 AM37 °FFog.5 mph100%29.66 "Hg5 mi
3:53 AM37 °FLow clouds.7 mph96%29.67 "Hg10 mi
2:53 AM37 °FLow clouds.5 mph100%29.68 "Hg8 mi
1:53 AM37 °FLow clouds.6 mph96%29.69 "Hg10 mi
12:53 AM38 °FLow clouds.5 mph93%29.70 "Hg10 mi
11:53 PM
Aug 26
38 °FDrizzle. Low clouds.7 mph93%29.71 "Hg10 mi
10:53 PM38 °FLow clouds.3 mph93%29.72 "Hg10 mi
9:53 PM38 °FLow clouds.No wind97%29.72 "Hg10 mi
8:53 PM37 °FLow clouds.3 mph100%29.73 "Hg8 mi
7:53 PM38 °FLow clouds.6 mph97%29.73 "Hg10 mi
6:53 PM38 °FLow clouds.6 mph97%29.74 "Hg10 mi
5:53 PM39 °FOvercast.6 mph89%29.74 "Hg10 mi
4:53 PM41 °FOvercast.9 mph86%29.74 "Hg10 mi
3:53 PM40 °FOvercast.7 mph86%29.75 "Hg10 mi
2:53 PM40 °FOvercast.8 mph86%29.76 "Hg10 mi
1:53 PM39 °FOvercast.3 mph89%29.78 "Hg10 mi
12:53 PM38 °FPartly sunny.5 mph90%29.78 "Hg10 mi
11:53 AM37 °FLow clouds.9 mph96%29.78 "Hg10 mi
10:53 AM35 °FFog.7 mph100%29.79 "Hg3 mi
9:56 AM35 °FDrizzle. Fog.9 mph100%29.79 "Hg1 mi
Weather by CustomWeather, © 2014

See weather overviewHow to use our weather pages